GFSSGP_250_rhum_000.txt.gz
RH
100 100 100 100 100 100 100 83 86 99 100 100 92 83 74 95 86 82 76 76 69 69 58 46 29 24 25 38 38 53 87 100 100 99 65 31 18 10 6 7 10 14 14 15 15 16 17 17 18
100 100 100 100 100 100 100 95 82 96 100 97 76 68 65 80 69 76 87 83 56 47 57 37 28 27 33 47 70 96 100 100 100 72 32 8 5 8 14 16 16 16 16 16 17 17 17 17 18
100 100 100 100 100 100 89 91 100 100 100 100 100 92 81 83 83 88 64 41 27 35 33 31 29 41 75 99 98 100 100 93 60 33 8 7 11 13 16 16 16 16 17 17 17 18 18 18 21
100 100 100 100 100 100 91 97 100 100 100 92 84 90 92 90 78 63 42 31 32 43 52 50 59 92 100 100 100 100 86 63 25 8 8 11 15 16 16 16 14 14 15 16 16 17 18 21 21
100 92 98 100 100 100 100 100 100 91 82 97 87 88 78 63 60 48 40 36 43 54 55 80 100 100 100 100 99 90 63 30 13 10 12 14 15 15 16 19 18 19 19 18 18 19 18 18 18
100 100 100 100 100 100 100 100 100 96 84 71 69 73 63 48 36 39 41 46 53 61 95 100 100 100 100 100 82 67 33 14 12 14 15 18 18 17 19 21 22 22 22 22 22 22 21 19 18
100 100 100 100 100 100 94 83 79 86 81 67 57 56 45 37 32 47 56 54 91 100 100 100 100 100 99 83 60 38 14 12 15 19 19 21 28 28 26 26 27 27 27 28 27 30 29 27 25
100 100 100 100 100 100 96 88 62 54 55 53 47 66 81 70 75 78 86 100 100 100 100 100 100 97 84 56 33 11 16 22 26 25 27 32 33 29 24 23 23 24 27 29 29 39 43 35 34
100 100 100 100 100 100 99 95 100 100 100 98 100 100 100 100 97 95 94 100 100 100 100 100 95 77 53 29 13 18 21 23 22 21 21 23 22 21 20 17 20 22 25 31 32 34 40 49 48
100 100 100 100 96 100 95 84 80 96 100 100 100 100 100 100 100 100 100 100 100 100 97 88 70 54 24 11 17 25 27 25 25 25 22 20 20 19 21 23 25 29 30 30 33 33 36 37 39
100 100 100 100 100 93 100 99 100 100 100 100 100 100 100 100 100 100 100 100 100 92 81 73 50 17 17 23 26 28 28 24 24 25 24 23 21 19 20 25 30 31 24 25 38 47 45 40 36
73 99 100 100 100 100 100 100 100 100 100 100 100 100 100 100 100 100 100 100 96 83 66 33 18 24 25 26 24 23 23 21 20 17 16 17 18 19 19 21 24 25 31 42 47 45 50 52 53
27 44 67 92 100 100 100 100 100 99 100 100 100 100 96 100 100 99 97 87 79 41 18 13 17 22 24 23 21 21 17 14 13 16 19 18 18 20 22 23 26 30 34 47 54 58 65 67 66
35 46 52 79 99 100 100 100 100 100 100 98 96 100 100 98 99 86 73 35 18 13 15 22 30 85 36 39 26 21 15 13 14 19 20 22 22 24 28 34 42 48 55 64 70 73 70 63 55
61 74 70 54 64 91 100 100 100 100 100 98 99 100 83 70 44 15 11 14 17 22 23 45 99 100 36 23 28 15 15 15 19 23 24 27 34 42 43 48 51 64 83 88 83 76 67 55 44
27 27 27 27 30 38 57 59 63 65 65 64 62 50 33 17 11 14 14 19 19 20 20 100 100 100 36 21 18 16 21 22 22 23 31 50 52 49 43 51 61 72 71 57 41 42 45 47 49
29 30 30 30 37 48 70 64 54 45 36 26 17 15 12 14 20 18 19 18 18 18 19 61 91 43 38 47 28 21 22 22 27 38 44 50 42 54 56 61 54 44 43 42 43 44 47 52 57
71 62 57 62 66 53 40 25 22 17 16 15 16 17 17 20 18 18 17 19 19 21 21 21 24 36 27 25 26 29 41 45 45 49 44 48 43 56 43 40 46 49 44 46 50 51 53 54 58
80 79 67 46 31 20 15 16 21 25 22 19 20 22 19 17 16 17 20 26 22 25 23 21 21 24 25 39 45 40 39 43 45 39 38 36 38 42 35 38 38 42 44 47 48 48 56 67 61
21 15 13 14 14 15 18 18 29 29 30 26 22 24 20 18 17 18 18 20 23 22 24 25 26 38 42 39 38 47 48 45 40 38 39 40 40 41 46 49 55 54 54 54 52 51 47 48 55
14 14 13 14 14 15 18 18 26 24 26 23 26 24 20 18 19 17 18 20 20 22 28 25 28 47 49 39 46 50 45 40 40 41 40 41 48 51 58 56 54 63 68 60 56 68 63 50 66
16 15 14 15 16 16 20 18 15 29 21 24 22 22 18 18 19 18 18 21 23 26 24 25 29 49 49 46 42 41 40 42 45 43 46 52 60 64 68 78 73 62 62 73 72 60 60 55 65
19 17 16 18 19 19 23 32 13 21 18 24 19 19 20 18 16 18 20 21 22 23 26 32 48 55 53 47 44 45 40 45 50 54 57 65 72 75 79 68 65 75 76 77 68 67 67 74 75
23 22 21 20 20 20 19 28 14 14 17 18 21 18 18 17 19 17 18 20 24 28 44 58 57 47 46 44 48 50 48 53 68 80 86 87 91 88 90 75 68 67 66 60 66 67 73 79 79
27 28 29 32 30 30 33 30 15 19 16 14 16 17 19 18 18 18 19 22 39 62 52 45 41 46 50 49 48 51 60 74 85 94 98 99 83 83 83 73 70 71 72 75 79 100 89 79 59
24 29 30 30 32 30 44 39 18 18 21 15 14 15 15 16 17 21 30 51 56 57 40 43 51 51 46 46 49 56 67 80 91 93 84 72 72 72 65 67 63 56 64 71 71 58 48 34 17
26 27 26 25 25 27 27 21 23 30 28 19 16 20 30 41 47 58 63 67 59 45 43 49 56 63 67 66 69 71 80 85 98 92 79 64 56 56 56 58 60 56 52 48 35 24 16 14 14
52 51 55 53 56 52 36 30 23 26 37 47 62 42 52 56 51 48 44 42 44 46 48 56 62 61 65 72 94 100 100 95 80 66 57 56 55 60 63 49 40 32 28 21 15 14 14 12 12
62 68 66 60 57 54 71 46 53 36 38 43 41 43 42 45 40 38 43 46 43 44 52 65 74 72 92 98 96 88 76 72 64 52 51 58 64 63 35 26 22 15 13 13 12 11 9 6 5
38 38 38 39 50 62 62 64 53 51 50 43 42 43 48 46 46 42 48 52 56 59 63 61 66 90 100 92 76 64 54 55 53 55 55 52 50 34 22 20 17 15 13 12 9 7 6 5 5

GFSSGP_250_rhum_003.txt.gz
RH
100 100 100 100 100 98 100 96 100 98 100 99 83 97 88 89 74 82 80 70 59 61 55 48 53 70 57 42 28 28 32 53 64 78 92 100 100 82 52 26 11 10 13 16 16 16 16 15 15
100 100 100 100 100 100 100 100 86 100 100 99 100 100 100 98 99 93 81 80 74 70 71 76 72 64 50 32 23 30 42 47 59 73 98 94 76 51 21 10 12 15 15 15 15 15 16 17 17
100 100 100 100 100 99 100 100 100 100 100 100 96 90 96 100 96 86 92 99 84 91 90 81 67 50 36 22 26 46 76 89 100 95 91 73 53 19 9 11 14 13 12 13 14 17 16 15 16
100 100 100 100 100 100 100 100 100 100 100 100 100 99 100 97 88 94 100 90 83 80 75 60 39 39 30 37 58 81 100 100 99 90 78 58 25 12 14 16 15 15 14 14 14 13 14 18 18
100 100 100 100 100 100 100 100 99 100 97 97 100 100 99 98 91 74 70 56 58 57 56 39 43 44 48 68 100 100 100 100 98 84 59 23 12 14 15 16 17 19 17 16 17 16 15 15 17
100 100 100 100 100 89 100 100 82 100 100 100 100 100 100 92 80 85 75 69 63 61 55 58 71 72 92 100 100 100 95 93 76 54 22 12 16 17 15 20 19 18 16 15 15 18 17 18 22
100 100 100 100 100 100 100 99 100 98 100 100 100 100 100 90 88 82 67 55 58 56 73 98 99 100 100 100 100 100 92 79 56 22 16 18 20 19 21 21 20 17 17 17 17 22 19 20 23
100 97 100 100 100 100 100 100 100 100 100 97 100 99 82 71 58 49 60 68 90 100 100 100 100 100 100 100 100 90 81 51 23 20 24 23 22 20 20 19 18 17 16 18 20 23 25 26 31
100 100 100 100 100 100 100 100 100 100 100 100 100 94 71 66 79 86 90 100 100 100 100 100 100 100 100 100 91 82 49 22 13 21 21 22 20 20 19 20 21 20 18 18 19 20 23 27 34
100 100 100 100 100 100 100 100 100 100 100 100 100 99 97 82 88 98 100 100 100 100 100 100 100 100 98 91 79 51 24 21 28 24 24 23 21 19 18 17 19 20 21 22 21 24 27 28 34
29 100 100 100 100 100 100 100 100 100 100 100 98 100 100 100 96 100 100 100 100 100 100 100 100 96 90 65 33 19 24 27 24 22 19 17 14 12 13 16 17 19 20 22 22 27 33 38 38
30 70 90 100 100 100 100 100 100 100 100 100 100 100 100 100 100 100 100 100 100 100 100 99 94 72 37 10 13 20 18 23 23 21 18 13 11 12 14 17 21 23 25 26 34 41 44 51 43
30 43 65 91 100 100 100 100 100 95 96 100 100 100 100 100 100 100 100 100 100 100 100 90 65 56 84 90 72 97 82 58 15 18 19 12 11 14 16 20 22 23 25 28 32 37 39 38 43
95 100 78 62 69 98 100 100 100 100 99 100 100 100 100 100 100 100 100 100 100 94 76 53 86 100 100 100 100 100 100 80 35 13 12 14 16 18 21 27 34 35 39 38 37 38 40 43 42
32 39 63 70 84 100 100 96 98 98 97 100 100 100 100 100 100 100 100 99 86 71 54 15 100 100 100 100 100 100 94 61 22 23 17 19 24 31 38 41 43 40 34 32 30 32 38 40 40
28 81 90 85 59 80 99 98 100 100 97 69 52 60 78 75 82 76 69 45 32 22 16 13 96 100 100 100 95 100 76 33 18 18 24 40 44 52 50 42 33 30 34 40 37 35 40 46 48
27 29 27 21 19 26 50 55 39 38 41 49 58 63 65 57 39 27 24 16 18 16 16 14 39 62 80 99 96 53 21 21 20 37 40 34 38 40 40 36 35 38 42 50 47 40 41 39 40
32 37 38 40 37 36 39 48 52 51 52 52 56 46 38 21 18 19 23 21 17 14 14 15 17 18 37 26 19 19 18 24 38 36 37 44 38 35 34 34 36 36 39 41 41 43 48 51 51
54 52 59 55 64 69 60 57 48 48 45 37 31 23 17 17 23 19 16 16 16 17 17 19 21 20 20 24 26 20 20 28 37 40 40 38 39 36 35 36 35 37 40 43 47 50 47 43 38
89 87 74 67 50 53 41 38 38 37 26 24 21 20 19 16 17 17 15 16 17 18 18 18 19 21 22 24 20 21 30 40 42 45 42 42 40 33 33 35 38 41 43 46 42 34 35 38 45
42 37 29 22 21 20 20 15 22 19 15 24 26 26 16 18 18 18 18 16 16 18 19 19 21 22 21 22 31 44 46 45 43 42 41 42 40 39 39 36 37 37 37 41 44 46 50 55 61
13 14 14 15 14 15 16 14 17 18 18 13 21 18 24 23 21 20 17 16 17 17 18 19 19 20 24 45 49 43 37 35 36 37 40 41 39 39 45 54 56 53 58 61 60 62 61 63 64
17 17 17 16 15 16 18 16 16 18 18 28 33 15 17 16 18 21 22 23 21 21 21 19 20 24 51 52 48 39 40 41 44 45 47 53 56 60 63 58 60 70 72 70 71 76 71 59 61
22 22 21 20 20 20 20 21 19 18 17 19 26 26 23 20 17 16 16 16 18 18 20 28 44 58 62 60 50 45 49 56 65 69 66 60 62 72 77 75 70 60 53 54 54 50 48 48 49
25 24 31 34 35 34 34 26 25 26 23 18 17 16 17 18 16 15 16 23 39 47 56 56 54 48 42 42 41 41 42 46 54 52 47 44 60 86 91 78 64 57 52 53 52 47 41 32 28
20 22 25 26 26 26 24 25 26 27 22 20 17 16 15 19 22 27 30 37 44 46 39 38 38 37 39 42 47 51 62 67 72 84 94 99 98 81 58 56 57 55 50 44 34 26 17 15 13
61 60 58 65 65 59 42 46 50 55 49 43 41 33 34 31 38 36 44 42 41 40 39 41 43 50 61 61 61 58 54 59 70 91 94 76 62 55 60 67 60 48 34 23 19 16 12 11 10
59 59 59 62 60 58 48 49 50 48 55 53 54 58 54 47 47 50 49 43 37 38 39 41 44 43 48 54 59 72 81 83 83 78 70 64 61 59 59 58 37 23 17 14 11 10 10 9 8
44 48 47 47 44 43 44 34 34 34 32 35 37 45 51 48 45 40 36 34 41 45 44 42 44 49 54 64 76 85 82 74 78 81 69 68 59 56 36 25 16 11 10 9 9 8 6 5 4
49 42 40 40 46 50 51 43 36 39 37 31 32 36 44 50 47 42 40 46 42 42 44 48 55 72 84 89 96 100 100 87 75 70 55 58 50 31 26 13 9 9 8 8 6 5 5 4 4

GFSSGP_250_rhum_006.txt.gz
RH
100 100 100 100 100 100 99 100 100 98 100 100 100 99 97 89 84 88 94 89 77 71 69 74 74 71 71 65 65 56 54 42 40 29 42 52 50 72 100 93 70 49 21 10 12 12 12 13 14
100 100 100 100 100 100 100 100 100 100 100 100 100 100 94 100 100 82 76 80 75 64 78 75 72 78 80 75 73 57 52 47 53 52 57 65 87 96 84 70 54 19 10 13 13 14 13 13 13
99 100 100 100 100 100 100 100 96 100 100 100 96 97 94 95 99 86 91 83 68 64 84 75 79 83 74 67 66 63 54 57 76 62 80 95 97 85 73 60 25 13 14 15 14 14 13 13 12
33 100 100 100 100 100 100 100 100 100 100 100 100 100 97 74 81 79 86 82 88 94 79 76 65 74 81 75 72 65 74 91 87 97 92 100 96 74 62 35 15 16 16 14 14 14 12 12 12
27 100 100 100 100 100 100 100 100 100 100 100 100 100 100 100 98 100 100 97 95 91 79 82 92 92 80 69 70 91 100 97 87 93 100 100 90 73 44 16 14 14 14 15 15 13 14 14 14
24 100 100 100 100 100 100 96 94 100 100 100 100 100 95 83 100 100 100 100 100 100 98 95 92 76 80 93 100 100 91 90 96 100 100 92 78 56 20 15 16 17 16 17 17 16 15 15 15
24 60 100 100 100 100 100 100 100 100 100 100 100 92 72 92 100 100 100 100 100 100 98 85 76 95 100 100 89 93 100 100 100 100 98 76 50 24 22 24 20 19 19 17 17 16 15 16 18
67 42 100 99 100 100 100 100 100 100 100 100 96 98 100 100 100 100 100 100 100 100 84 69 79 100 94 95 100 92 100 100 100 94 75 47 22 21 20 22 21 19 19 17 15 15 15 16 19
16 21 46 100 100 100 100 100 100 100 100 100 98 97 100 100 100 100 98 97 89 82 88 89 93 96 100 100 100 100 100 99 86 67 46 20 17 17 20 19 19 15 12 13 16 18 18 20 22
27 36 36 100 100 100 100 100 100 100 100 100 100 100 100 97 92 96 92 93 98 100 100 100 100 100 100 100 100 100 96 80 65 44 37 29 22 23 22 16 14 12 11 12 18 23 24 22 24
26 100 100 100 100 100 100 100 100 100 100 100 100 95 98 100 99 100 100 99 100 100 94 100 100 100 100 100 100 88 82 83 76 70 87 78 41 38 16 15 14 11 13 18 20 22 25 29 31
50 37 30 45 96 100 100 100 100 100 100 100 100 100 100 100 100 100 100 100 100 100 100 100 100 100 100 99 85 99 100 100 100 100 100 100 100 77 22 13 14 19 20 22 27 38 39 42 41
62 49 32 32 100 100 100 100 100 100 100 100 100 100 100 100 100 100 100 100 100 100 100 100 100 100 100 88 100 100 100 100 100 100 100 100 82 36 24 19 18 23 27 36 41 44 41 38 38
75 70 94 82 98 100 100 100 100 100 100 100 100 100 100 100 100 100 100 100 100 100 100 100 100 99 94 98 100 100 100 100 100 100 100 99 57 25 17 20 32 35 35 37 38 38 31 28 28
70 64 68 100 100 100 100 100 99 100 100 100 100 100 100 100 100 100 100 100 95 93 94 89 82 75 72 55 73 100 100 100 100 96 96 63 27 21 23 35 34 32 37 38 37 36 33 34 36
51 53 47 39 31 38 49 81 100 100 100 100 100 100 100 99 96 89 69 51 68 70 66 55 37 27 35 36 53 65 94 96 98 75 56 24 26 45 46 48 38 32 32 34 35 33 35 38 41
50 37 37 33 26 25 49 87 88 80 99 57 43 77 87 83 54 48 58 53 52 45 34 22 48 75 80 62 20 27 31 25 20 20 21 20 21 32 38 42 43 43 42 40 38 34 34 38 41
11 11 16 30 26 25 25 28 25 22 25 30 37 43 47 50 45 51 80 82 44 34 35 66 60 59 20 30 21 18 18 19 21 22 20 23 35 38 34 35 38 40 42 44 44 41 39 40 38
9 8 10 14 24 29 36 40 41 46 48 54 55 51 45 40 38 34 34 36 34 30 24 32 17 14 15 17 18 19 20 22 21 20 38 48 41 37 36 33 31 30 28 27 30 33 34 37 37
44 42 42 48 65 64 66 70 70 64 55 49 38 32 33 30 30 33 31 28 24 19 16 15 16 16 16 17 19 22 21 20 22 39 49 48 41 37 33 32 31 30 33 35 35 35 34 36 43
79 84 84 76 64 67 57 34 30 36 34 35 38 35 28 26 26 25 24 20 17 15 15 16 16 17 18 19 19 20 21 30 46 56 55 45 42 41 38 34 35 35 34 35 40 44 47 51 52
48 41 37 35 28 23 19 17 19 19 21 22 26 26 25 20 18 16 15 16 17 16 16 16 16 16 16 18 22 35 44 48 44 42 40 40 36 36 41 44 40 41 44 41 45 49 57 62 72
20 19 17 18 18 18 16 15 16 19 21 21 21 22 23 25 28 19 18 16 16 16 16 16 16 20 31 40 45 42 37 42 39 37 40 45 48 51 58 61 57 53 54 64 67 57 57 62 60
20 19 20 21 21 20 18 19 20 21 23 30 37 35 30 29 22 22 23 21 22 20 24 32 41 42 46 44 42 46 44 43 44 45 48 53 57 60 69 77 75 72 64 62 63 58 53 48 40
31 27 25 27 27 21 24 26 26 26 25 27 28 29 29 29 25 24 20 29 42 47 47 48 48 49 52 58 51 41 39 41 50 62 70 80 90 99 95 75 59 55 51 48 46 45 41 35 25
28 29 30 39 44 54 57 55 52 40 39 38 44 49 56 50 49 38 41 42 42 43 45 42 40 39 35 37 44 51 64 70 64 82 90 78 67 58 51 47 48 53 51 46 40 27 19 14 11
66 64 60 58 54 51 49 49 47 49 44 38 37 38 37 32 30 28 28 25 29 38 41 44 42 45 54 59 53 50 48 49 53 51 47 50 59 64 60 52 48 46 36 24 14 9 8 8 7
50 51 56 57 55 47 43 40 40 37 33 30 31 33 30 28 30 31 34 38 41 42 44 45 50 52 50 48 48 46 42 43 48 54 71 80 62 56 54 44 38 27 16 9 7 7 7 5 4
47 47 49 50 52 42 35 34 32 30 36 42 42 43 44 41 36 39 44 46 45 44 49 49 48 47 44 40 46 62 70 67 70 74 68 56 54 48 35 28 22 10 8 7 6 5 4 4 4
58 59 51 44 45 45 46 49 53 52 49 48 47 44 42 42 42 42 48 49 50 53 52 48 45 44 52 70 72 63 64 67 67 61 60 55 41 35 26 19 8 7 7 6 5 4 4 3 3

GFSSGP_250_rhum_009.txt.gz
RH
15 20 59 100 100 100 100 100 100 100 100 100 100 89 100 100 100 100 99 96 85 98 100 98 80 76 57 52 56 56 51 48 52 60 57 58 58 46 44 47 47 53 75 70 43 17 11 12 12
18 17 42 90 100 100 100 100 100 100 100 100 100 100 100 100 100 100 100 100 100 100 100 100 100 86 67 71 70 58 69 68 65 69 70 63 64 77 55 47 61 75 72 53 26 13 12 14 13
25 20 23 63 100 100 100 100 100 100 100 100 100 100 100 100 100 100 100 99 100 100 100 97 83 83 77 79 87 81 65 71 75 76 69 88 82 64 57 72 85 80 61 41 18 14 14 14 13
24 24 21 22 43 100 100 100 100 100 100 100 100 100 100 100 100 100 100 92 100 100 100 84 69 92 92 77 75 78 65 83 76 75 84 80 62 55 74 95 87 66 58 24 14 13 14 15 14
20 25 24 22 27 48 100 100 100 100 100 100 100 100 100 100 85 91 100 97 98 82 72 74 82 89 80 100 94 95 91 87 81 87 76 63 68 86 100 92 72 63 32 19 16 15 15 15 14
24 25 26 24 26 41 98 100 100 100 100 100 100 100 96 92 100 98 84 87 79 86 72 78 80 85 100 100 100 100 100 93 93 77 81 84 99 100 92 80 63 41 26 20 20 20 18 17 15
29 31 28 30 42 33 80 100 100 100 100 100 100 100 100 100 100 100 100 100 94 88 72 78 99 100 100 100 100 99 100 98 87 98 100 100 100 100 89 65 44 32 19 17 19 18 16 13 11
41 38 41 34 45 60 100 100 100 100 100 100 100 100 100 100 100 100 100 96 100 100 100 100 100 100 100 83 94 100 86 84 89 100 100 100 96 82 64 57 51 32 20 18 17 18 16 11 12
41 43 46 45 77 100 100 100 100 100 100 100 100 100 100 93 99 98 96 95 92 100 100 100 100 100 100 100 92 98 96 93 100 100 94 98 85 80 70 85 75 31 58 53 20 14 12 12 16
55 55 53 50 79 96 100 100 100 100 100 100 100 99 100 100 100 100 100 100 100 100 100 100 100 100 100 100 100 96 100 100 100 100 100 98 100 100 99 74 89 95 69 31 13 15 18 17 18
65 63 100 99 98 100 100 100 100 100 100 100 100 100 100 100 100 100 100 100 100 97 96 100 100 100 100 100 100 100 94 100 100 100 95 97 100 100 100 100 98 87 58 30 20 18 22 24 26
77 76 83 100 100 100 100 100 100 100 100 100 100 100 100 100 100 100 98 100 100 100 100 100 100 100 100 100 100 100 100 100 100 100 100 100 90 82 72 76 91 83 49 24 22 32 37 35 29
91 96 80 74 51 42 68 74 100 100 100 100 100 97 100 100 100 100 100 100 100 100 100 100 100 100 99 95 100 100 100 100 100 100 93 100 92 84 93 97 70 66 35 24 37 33 33 33 34
94 96 96 87 68 87 100 100 100 100 100 100 100 100 100 100 92 100 100 100 100 95 100 100 100 99 100 99 100 100 100 92 69 82 95 100 100 100 100 100 64 36 25 33 45 46 42 40 43
79 79 93 93 79 63 54 59 100 100 100 100 100 100 100 100 100 100 100 100 100 100 100 98 100 92 98 77 65 52 44 33 48 50 49 42 51 69 80 44 21 23 23 27 38 36 39 42 43
80 76 73 75 80 80 73 87 100 88 100 100 100 100 100 100 90 97 99 92 85 79 78 76 66 78 99 97 94 81 86 76 73 74 44 27 25 27 25 21 22 24 42 46 42 40 39 39 40
76 75 69 64 59 62 59 57 72 92 100 100 91 83 77 94 99 81 48 44 62 67 68 78 92 99 100 100 100 99 100 96 79 22 20 18 18 19 20 20 21 43 49 43 40 39 37 37 38
18 29 44 59 55 48 45 42 37 32 26 24 25 31 33 31 33 43 51 56 61 65 63 88 100 100 100 100 100 97 55 24 18 17 17 17 17 19 21 26 34 40 42 43 44 45 43 41 40
24 29 33 36 31 19 8 11 22 18 20 31 42 49 56 54 56 52 49 72 69 75 64 73 83 93 95 65 38 26 17 17 16 16 16 18 20 25 39 45 38 36 32 32 33 34 35 37 37
14 11 10 8 9 18 25 18 40 53 62 68 72 66 61 53 43 40 42 41 41 45 62 59 39 32 27 21 19 17 16 15 16 17 19 29 42 41 34 31 32 35 38 36 33 32 32 33 33
22 25 31 48 58 73 81 84 77 66 56 47 43 38 37 36 35 37 38 34 32 31 29 28 26 20 18 17 16 16 16 17 22 36 39 37 35 33 35 39 40 40 38 34 32 31 30 31 34
77 80 82 84 80 72 66 48 35 35 33 28 26 24 20 20 22 23 19 19 18 19 18 18 17 16 16 15 16 18 21 29 34 32 33 37 41 43 44 44 39 32 32 36 42 48 56 62 61
67 64 50 32 24 18 16 16 17 18 18 19 19 18 19 20 21 22 22 19 17 16 18 16 15 15 16 18 23 31 35 36 40 43 44 49 48 40 34 35 44 50 69 76 64 55 50 47 48
24 21 19 18 17 17 20 21 28 28 31 33 36 37 36 34 33 36 32 27 32 43 26 25 31 34 36 38 42 45 46 47 53 56 47 42 48 58 64 65 73 62 53 48 44 43 41 40 38
20 20 21 21 23 23 22 24 34 47 52 59 64 61 56 52 50 48 45 41 39 37 41 45 39 39 48 52 49 48 47 44 45 46 55 70 72 65 72 67 62 57 46 39 37 39 40 35 30
21 27 32 47 53 51 47 48 47 45 45 45 46 45 49 47 42 48 46 43 45 48 53 55 54 53 54 51 49 55 59 60 64 66 68 71 73 65 54 49 39 36 31 34 36 29 24 20 13
63 55 49 48 47 49 48 42 35 35 38 39 38 43 49 50 48 47 45 45 48 52 54 54 56 54 52 51 56 66 67 60 58 54 58 57 51 46 41 40 39 35 34 26 21 18 12 8 7
46 46 48 49 56 56 55 52 48 43 42 41 43 43 43 40 41 41 42 41 43 45 46 49 48 48 49 47 48 49 50 52 57 60 56 50 44 48 44 41 37 32 23 18 11 7 6 6 5
52 60 61 56 53 50 47 43 43 46 46 46 43 40 38 35 36 39 42 46 44 41 42 41 40 42 47 56 56 54 62 59 50 47 48 56 52 45 42 38 29 19 15 9 7 7 5 5 4
62 64 62 58 54 53 49 45 44 41 40 40 39 36 34 35 36 41 41 44 41 37 35 39 43 52 53 54 60 60 52 47 55 57 57 56 53 41 34 26 20 13 8 7 6 5 4 3 3

GFSSGP_250_rhum_015.txt.gz
RH
12 12 13 14 17 20 23 21 22 19 20 22 56 64 74 100 100 100 100 100 100 98 100 93 100 100 100 98 91 96 99 80 82 66 65 64 73 79 61 64 48 61 65 51 34 25 34 56 54
14 15 14 15 16 21 24 25 24 24 24 26 34 91 100 100 100 100 100 100 100 100 100 100 100 100 97 92 86 84 89 87 83 85 78 76 54 47 68 66 68 65 62 37 24 37 55 67 77
9 12 12 12 14 17 22 24 26 26 25 26 50 40 98 100 100 100 100 100 99 100 100 99 100 100 99 99 100 88 86 94 89 83 64 55 49 62 61 91 94 69 48 44 42 76 58 84 93
8 8 9 11 12 13 17 21 25 28 29 28 30 53 100 100 96 100 100 100 100 95 95 100 100 100 96 97 89 73 77 70 71 62 53 68 68 77 83 91 70 59 52 45 57 62 80 91 75
10 10 9 10 11 13 14 18 21 30 31 31 29 40 99 100 100 100 100 100 100 100 95 92 100 97 96 89 84 92 85 61 61 58 94 93 73 90 85 49 58 42 48 72 68 86 98 93 78
14 12 12 13 16 13 16 18 21 28 33 36 35 38 90 100 100 100 100 98 100 100 100 100 88 100 84 100 96 95 82 54 100 100 86 88 84 96 68 68 54 75 86 76 70 99 97 95 77
18 18 15 17 18 22 24 25 27 33 33 38 38 74 53 85 100 100 100 100 100 100 100 100 100 96 83 76 77 86 88 97 97 85 77 91 76 71 82 78 61 78 69 100 99 87 97 87 66
23 24 18 26 30 29 25 31 32 34 33 40 40 84 100 100 100 100 100 100 100 100 100 100 100 100 100 99 98 88 95 100 99 67 78 71 77 100 83 92 88 70 100 88 95 96 78 76 68
44 47 46 40 40 35 35 37 40 40 50 56 92 96 100 100 100 100 100 100 100 99 100 100 89 62 77 99 100 92 77 100 100 91 98 100 94 98 100 92 80 94 98 91 99 74 66 47 44
61 72 69 63 56 56 54 45 51 60 86 88 100 100 100 100 100 100 100 100 100 100 100 100 100 100 100 100 93 96 100 100 100 99 100 100 99 94 99 100 99 100 98 71 54 42 33 36 27
87 91 93 91 84 84 88 78 60 82 86 98 94 100 100 100 100 100 100 100 100 100 100 100 100 100 94 81 89 99 100 99 100 98 93 100 100 94 100 97 97 97 61 50 45 40 52 28 21
88 100 100 100 100 89 89 74 64 90 90 88 99 100 100 100 100 100 100 100 100 100 100 100 99 100 100 100 100 100 100 100 98 100 93 98 97 91 90 93 82 64 68 60 72 68 25 18 18
100 100 100 100 100 100 100 100 94 85 92 100 100 100 100 86 100 100 100 100 100 100 100 100 92 99 99 100 100 100 86 92 100 100 97 99 81 62 52 57 61 67 69 77 81 52 18 17 18
100 96 100 100 100 100 100 100 100 86 85 85 88 84 100 100 100 100 94 100 98 100 95 84 92 84 99 98 92 99 100 100 100 100 83 90 78 60 58 54 51 52 83 88 66 27 18 18 19
99 93 100 100 100 100 100 100 100 99 100 94 100 100 100 100 100 100 100 98 98 98 97 88 79 79 91 86 98 100 100 94 91 75 71 83 75 73 75 62 98 100 90 55 20 18 18 19 19
90 96 98 100 100 94 99 100 100 100 100 100 100 100 95 94 100 100 100 96 94 84 88 80 79 90 96 100 100 100 100 100 100 100 100 95 90 100 100 100 100 94 75 41 18 18 19 28 40
96 98 96 91 100 98 94 95 92 96 96 99 100 100 96 89 77 71 68 62 57 59 62 60 58 59 83 100 90 94 100 100 100 100 100 100 100 100 100 84 60 31 20 20 25 40 42 44 49
97 100 100 100 100 100 93 88 87 80 76 70 66 68 70 67 60 50 28 16 18 24 35 44 59 81 94 100 84 81 98 100 100 100 100 100 99 75 36 23 19 20 24 46 52 48 50 49 48
100 100 99 98 95 95 93 91 88 85 78 70 59 42 33 14 12 19 32 48 56 64 69 68 71 81 73 74 94 100 100 100 100 91 56 26 23 21 22 23 33 52 56 53 47 45 45 41 42
90 70 50 50 50 41 35 30 30 34 38 46 44 34 17 12 26 44 67 65 51 43 37 34 37 40 29 26 28 30 29 30 30 27 27 28 33 45 55 55 52 49 46 46 41 43 62 67 56
30 17 11 9 12 17 18 17 23 29 24 19 34 50 64 70 68 52 32 22 18 20 21 21 23 28 31 30 32 35 38 38 37 44 52 54 51 48 46 46 46 46 50 57 50 43 42 42 40
10 15 18 18 17 27 53 77 88 82 70 68 57 36 21 18 20 23 23 28 32 34 38 44 49 46 45 48 51 49 45 45 44 43 42 42 44 42 39 43 49 48 43 41 46 48 47 44 44
18 20 34 54 85 86 78 65 60 51 40 22 16 19 24 31 36 37 48 46 44 42 42 39 40 39 39 40 42 44 45 42 41 42 40 38 39 41 41 42 45 47 50 49 46 53 55 54 56
39 60 73 55 35 42 36 23 19 17 20 23 31 48 55 59 52 47 45 46 46 43 41 40 40 40 37 36 35 35 37 39 39 38 35 33 35 43 49 51 52 47 48 51 56 62 60 49 46
55 44 31 20 18 20 23 24 25 29 37 55 61 54 57 56 57 56 55 50 45 40 36 33 31 30 30 32 32 31 32 34 34 34 38 49 50 53 56 54 53 56 57 58 68 58 48 42 37
19 19 22 22 27 35 56 60 59 55 53 56 62 60 59 59 52 43 36 32 30 30 32 38 41 38 38 38 38 38 40 41 47 52 56 62 66 65 60 56 56 62 64 71 53 44 32 23 16
24 28 44 57 65 60 60 58 59 58 58 57 57 52 41 35 33 32 35 36 36 35 35 36 40 44 50 58 70 86 92 88 85 77 67 63 58 52 51 57 65 69 73 55 39 25 18 12 9
55 52 48 48 48 49 50 52 55 56 53 47 42 38 36 38 39 41 44 47 52 50 51 54 62 74 80 78 75 76 73 63 56 54 56 54 56 57 64 69 77 70 53 32 19 16 11 9 7
45 44 43 44 46 50 56 57 52 47 44 41 42 42 45 48 44 49 62 75 77 80 86 81 76 70 63 53 55 55 47 48 54 58 58 59 56 66 74 73 65 54 44 23 16 12 9 7 6
52 54 55 55 57 62 61 56 50 46 48 50 49 49 49 52 58 61 63 67 78 80 76 73 74 64 54 50 47 48 50 54 53 55 56 64 77 76 70 66 59 38 25 16 12 9 7 6 5

GFSSGP_250_rhum_021.txt.gz
RH
6 8 9 11 12 13 15 15 16 16 19 24 23 22 20 21 33 35 38 31 32 85 47 34 49 74 52 40 41 48 44 48 76 69 82 89 86 83 89 80 80 79 61 68 62 52 58 56 71
6 8 10 11 12 14 14 13 16 18 25 26 26 26 25 23 22 23 28 35 44 56 95 100 68 89 89 95 81 78 61 57 63 56 74 81 71 66 72 87 66 60 72 79 62 64 64 47 42
7 8 8 8 10 13 13 11 14 18 24 26 26 28 28 28 28 27 32 40 60 72 94 100 100 100 100 95 95 79 79 100 82 76 88 69 57 44 40 43 62 93 92 80 52 45 37 58 58
8 8 9 9 10 10 10 10 12 16 19 22 24 27 27 26 25 24 26 29 64 78 100 100 100 100 100 100 87 85 100 100 85 60 63 56 51 60 100 100 100 86 69 65 50 52 71 92 83
9 10 10 10 11 9 11 11 15 12 12 15 17 19 20 20 20 20 20 25 55 75 93 95 64 96 100 100 96 94 85 74 97 89 81 100 100 98 100 100 94 92 90 70 61 75 97 77 80
10 10 10 10 9 11 11 12 12 11 13 12 11 13 15 16 17 18 21 21 36 31 66 80 94 100 100 100 100 98 100 100 98 100 100 100 100 100 100 100 85 88 80 96 97 97 87 68 59
10 12 13 10 11 10 10 9 86 84 14 11 10 10 10 12 14 20 56 72 96 100 100 100 94 100 100 100 100 100 100 96 100 100 100 100 84 95 97 91 78 100 86 92 95 80 60 50 73
15 18 16 15 13 11 10 10 15 15 15 84 12 10 9 9 18 49 96 100 100 100 100 73 100 100 100 100 100 100 100 100 75 100 95 98 93 87 96 100 100 97 96 87 77 69 53 49 78
25 25 30 24 22 100 18 12 12 12 16 14 10 11 15 14 19 41 86 100 100 100 100 100 100 100 100 100 99 86 99 100 94 92 88 100 100 100 100 100 100 95 75 75 66 59 56 77 70
47 41 35 28 29 79 46 22 22 24 24 32 31 23 37 51 47 65 67 64 90 100 100 100 100 100 100 100 100 100 100 100 100 100 95 100 100 100 100 82 85 74 68 61 57 44 47 49 55
43 37 38 51 58 57 50 54 50 58 67 81 76 70 54 62 100 72 81 79 97 100 100 100 100 100 100 100 100 100 100 99 76 100 100 100 100 99 82 71 74 65 61 53 42 49 50 57 55
63 88 100 78 88 100 100 97 88 90 98 100 100 76 71 71 90 72 96 100 100 100 100 100 100 100 100 100 89 91 93 87 100 100 100 100 94 80 71 65 71 65 58 53 58 53 48 44 43
100 100 100 100 100 100 100 100 94 98 87 100 100 86 88 71 74 85 89 95 100 100 100 100 91 100 100 97 100 100 100 99 100 100 100 94 96 83 73 68 54 52 43 42 44 40 43 63 86
99 100 100 100 100 96 97 97 100 98 88 85 76 98 96 94 100 98 100 98 97 97 100 100 100 100 100 100 100 100 100 100 79 82 83 87 84 76 77 80 82 80 60 54 35 42 55 88 96
100 100 100 100 100 100 100 100 100 100 100 100 100 99 94 92 100 100 100 100 100 100 100 100 100 99 100 91 90 89 76 74 90 91 85 75 76 82 99 100 100 100 100 99 100 96 67 56 61
100 100 99 98 100 100 100 96 100 100 86 93 95 95 96 84 89 92 90 100 100 100 100 100 100 100 96 79 84 100 98 81 87 83 85 96 100 99 100 100 100 100 100 100 100 100 99 60 40
100 100 94 100 100 100 99 89 91 100 100 96 100 98 94 98 95 86 100 100 100 100 100 100 98 96 100 92 79 62 52 36 56 86 94 92 100 97 100 100 100 100 84 60 40 36 37 42 46
100 100 100 97 99 96 100 100 94 92 97 100 100 96 100 100 100 100 98 87 100 100 93 93 83 81 83 78 62 46 46 55 73 82 80 73 73 66 62 60 42 36 35 36 37 39 40 43 44
100 96 99 100 100 100 100 100 95 96 94 90 91 100 100 100 100 100 100 83 76 69 54 45 53 45 36 27 32 50 58 58 42 27 27 31 34 38 39 38 39 41 45 45 48 47 46 43 43
97 100 100 100 100 100 97 85 84 95 100 100 100 100 98 99 95 88 84 78 70 52 39 35 41 54 54 40 27 26 31 36 37 33 32 37 40 43 44 52 51 50 50 43 40 40 50 53 55
100 100 100 100 100 100 98 97 98 94 88 83 82 75 50 35 29 27 31 32 40 55 57 41 28 29 31 32 32 32 32 34 38 41 42 45 47 47 49 49 47 43 40 41 40 40 45 44 48
100 100 100 100 94 94 81 66 61 50 40 25 20 24 28 31 54 73 71 54 27 30 34 37 38 36 35 34 33 33 34 36 38 38 41 41 44 45 42 42 40 35 35 36 39 43 50 55 60
100 96 98 89 82 88 26 14 20 20 27 60 54 71 75 64 39 24 30 40 42 42 38 35 34 34 33 34 38 43 46 48 52 56 59 59 63 55 45 36 32 39 45 48 51 55 62 65 70
90 81 70 52 26 14 16 24 32 45 74 55 45 31 23 30 45 40 43 40 37 36 36 36 38 40 39 39 42 48 55 67 75 87 81 86 78 70 56 50 50 50 50 54 56 59 62 60 58
35 36 25 18 17 24 54 69 57 32 28 25 22 30 42 40 44 42 40 40 39 41 41 41 44 48 51 58 65 70 74 76 72 72 72 70 61 58 60 61 50 48 50 52 56 55 51 47 45
23 25 29 46 63 66 50 37 24 28 36 44 41 36 39 45 42 40 44 46 42 37 41 41 45 47 52 67 66 68 76 81 72 65 66 60 60 59 55 51 51 54 58 56 59 54 46 45 38
54 69 70 68 49 29 28 47 51 46 42 41 45 48 50 47 46 53 51 49 46 38 38 44 54 47 48 58 60 70 91 89 86 84 77 74 65 57 56 56 59 58 64 63 56 59 51 39 27
69 59 46 30 28 44 61 53 46 46 49 55 55 58 54 53 53 53 52 51 51 44 39 40 42 45 57 67 76 78 92 98 96 84 84 80 66 65 62 58 62 70 65 68 76 61 45 29 22
40 31 31 54 66 58 47 46 51 63 67 67 65 60 58 56 54 53 54 52 49 47 40 45 55 62 72 74 82 86 87 87 79 79 79 74 68 63 66 70 73 72 79 75 54 45 39 27 18
30 39 68 70 62 58 60 70 71 72 72 74 73 72 72 73 70 69 63 62 52 42 47 58 63 69 68 71 78 90 96 84 76 77 74 67 67 69 70 74 76 83 76 43 32 25 18 17 16

GFSSGP_250_rhum_024.txt.gz
RH
4 5 6 5 5 7 9 10 12 5 18 16 15 17 19 21 22 22 24 56 84 78 60 46 44 49 44 42 49 51 46 54 73 73 67 65 68 78 73 89 86 62 55 49 48 41 38 54 62
5 5 5 5 7 8 10 8 4 9 10 14 11 15 18 19 26 26 22 47 78 92 63 55 39 48 54 53 72 84 100 100 100 100 100 100 87 87 88 91 78 55 49 72 72 34 53 65 57
6 6 6 6 7 8 10 7 8 10 12 10 15 17 17 19 25 25 27 48 55 53 63 52 68 80 76 82 100 86 88 100 100 100 99 100 100 100 88 65 60 78 52 75 90 80 86 82 74
7 7 7 7 7 9 8 7 12 10 12 14 16 15 15 15 16 23 27 37 41 40 49 63 63 52 89 87 85 100 100 80 100 100 100 84 80 69 63 82 66 81 96 100 100 100 92 80 86
8 8 7 7 8 9 9 9 11 12 27 50 23 30 16 14 15 16 40 35 46 44 32 33 79 78 83 80 91 97 97 98 100 100 100 86 88 89 67 100 100 100 100 98 77 78 100 100 100
11 10 7 8 8 9 10 12 13 19 91 76 57 40 58 49 21 27 30 50 60 56 43 93 100 71 42 58 51 93 100 100 100 100 100 100 100 100 100 100 100 97 80 71 88 100 99 87 100
15 11 10 9 9 11 14 12 14 15 65 46 47 99 56 26 24 16 15 16 23 43 70 96 100 97 91 98 86 100 100 100 100 100 100 100 100 100 90 74 82 84 96 78 94 100 100 92 83
20 14 11 12 12 11 11 17 18 16 23 15 27 44 68 59 38 20 22 31 40 44 92 100 100 100 100 100 100 100 100 100 100 100 100 98 100 100 100 100 100 97 88 71 75 100 93 88 68
27 23 18 23 19 20 46 100 77 64 47 21 30 92 49 52 36 31 21 57 77 100 100 100 100 100 99 100 100 100 99 100 100 100 100 100 99 98 100 100 89 94 95 100 92 85 87 68 49
45 45 35 30 39 65 80 100 100 86 61 29 46 32 64 49 38 31 32 100 100 100 100 100 100 100 100 100 100 100 100 100 100 100 100 94 100 93 99 100 100 87 88 92 92 86 72 57 44
55 56 36 46 67 98 100 100 98 50 39 56 98 100 99 67 70 81 100 100 100 100 100 100 100 100 100 100 100 100 100 100 100 100 100 100 96 100 95 99 95 84 82 86 75 62 52 44 42
66 59 71 75 88 100 100 100 81 76 36 30 80 99 71 59 62 76 93 100 100 100 100 100 100 100 100 100 100 100 100 100 100 100 100 100 100 100 100 100 92 75 76 65 52 50 42 34 37
85 97 84 98 92 100 100 100 100 80 83 86 99 100 99 90 72 73 93 81 100 100 100 100 100 100 100 100 100 100 100 100 100 100 100 100 100 100 100 96 87 75 54 46 38 35 39 38 34
97 94 100 100 100 77 81 94 100 96 99 86 85 100 100 91 69 61 92 99 75 98 100 100 100 100 100 100 100 100 100 100 100 100 100 100 100 96 92 77 59 51 44 43 51 66 65 74 83
100 100 100 100 100 100 100 100 100 86 76 85 100 100 100 100 90 80 80 100 100 99 100 100 100 100 100 100 100 100 100 100 100 100 100 97 89 69 58 60 55 42 53 72 85 95 100 100 100
100 100 100 100 100 100 100 100 100 81 94 90 81 99 100 98 95 91 99 100 88 92 100 100 100 97 100 100 100 100 100 100 99 92 74 68 75 85 71 44 50 64 73 88 98 92 46 36 37
100 100 100 100 100 100 99 100 97 100 100 100 90 76 80 84 94 86 87 95 100 98 95 100 100 100 100 100 100 100 79 90 100 100 97 85 61 47 47 59 48 41 41 38 38 37 36 36 33
100 100 100 100 96 100 100 100 100 90 80 95 99 97 100 100 95 100 92 95 98 100 100 100 100 100 99 94 92 97 96 92 78 60 48 37 44 41 28 34 42 44 39 35 30 27 26 26 28
100 100 100 100 99 99 100 100 100 100 100 83 100 100 97 95 100 100 100 100 100 100 100 100 85 94 92 87 75 55 55 44 36 46 43 29 34 38 37 32 30 31 31 29 28 28 29 34 33
100 100 100 96 96 82 88 81 100 100 100 95 86 86 96 87 83 81 80 87 81 72 76 85 82 78 69 50 33 43 50 37 31 31 29 28 29 30 31 36 34 36 39 41 40 37 33 34 36
100 100 92 91 100 100 100 100 86 83 78 74 80 98 92 89 82 83 88 72 60 54 47 41 42 57 56 52 34 29 27 25 26 28 31 35 40 38 37 40 56 61 56 52 50 52 50 50 53
100 100 86 78 100 93 99 90 91 69 77 74 83 83 86 68 50 31 23 18 44 65 77 68 43 34 30 27 26 26 27 30 35 41 48 50 61 67 67 64 63 65 77 74 60 59 57 51 48
82 81 72 95 96 100 93 65 74 80 50 70 47 23 36 23 24 40 62 62 35 32 33 33 31 30 28 30 37 42 42 40 42 42 44 50 52 60 71 74 72 68 55 48 50 49 50 52 53
89 84 82 98 99 100 84 70 78 19 40 98 92 91 71 61 61 36 26 35 40 36 31 31 31 34 37 38 36 36 31 33 42 42 52 65 68 65 63 69 66 54 52 55 55 58 55 52 52
88 87 100 98 94 79 77 59 28 39 99 100 100 87 71 24 24 36 45 40 33 34 35 36 35 33 35 36 38 38 38 44 47 61 70 76 71 70 67 64 64 65 66 62 60 62 58 49 46
66 61 66 82 52 46 44 57 52 68 75 66 100 72 28 43 49 43 38 34 36 39 43 45 45 46 45 40 39 42 44 53 61 65 71 78 70 70 69 71 72 73 70 72 66 60 54 48 46
30 33 39 36 45 79 77 77 42 36 31 34 49 45 51 45 41 40 38 39 40 44 50 50 52 54 52 46 41 42 51 62 62 69 82 82 77 76 76 77 75 76 84 70 60 55 47 46 42
18 49 34 51 81 73 40 31 36 52 52 50 47 44 41 37 39 43 45 50 52 55 58 57 59 74 63 41 45 50 50 57 62 72 86 85 79 84 85 80 84 86 73 65 60 62 57 47 32
39 75 91 67 50 30 32 47 54 52 49 44 40 40 40 45 54 58 60 64 64 66 72 70 69 76 72 65 60 53 56 60 73 88 88 81 83 87 80 85 90 81 69 72 78 59 37 28 21
90 76 58 35 31 57 62 64 55 48 42 43 46 53 63 68 66 68 68 63 62 69 73 70 90 100 100 92 89 67 60 76 88 80 74 76 76 80 90 91 83 75 82 79 58 34 26 22 17

GFSSGP_250_rhum_027.txt.gz
RH
4 4 5 4 4 5 6 6 4 4 6 6 8 8 12 16 14 10 19 19 24 25 32 44 66 76 60 53 70 62 69 59 50 57 63 58 65 73 84 100 97 82 97 76 95 84 65 40 34
5 4 5 5 5 6 7 6 5 5 8 9 10 11 14 19 19 17 17 26 24 38 35 43 52 65 76 58 67 66 70 58 63 76 72 75 91 100 100 100 100 97 100 100 78 58 36 44 61
5 5 5 6 6 8 7 5 6 6 8 10 10 8 14 19 18 17 28 28 24 25 30 58 99 98 86 59 78 59 48 62 71 62 64 82 100 96 96 86 100 100 100 94 67 61 98 100 100
6 6 6 7 8 8 7 7 8 8 11 12 12 13 14 14 24 24 18 17 24 27 24 40 45 67 58 57 49 42 56 68 79 100 100 100 100 100 100 100 100 100 100 83 78 53 78 97 90
8 8 8 8 10 9 7 6 6 9 9 10 21 23 16 15 29 39 61 86 78 87 61 52 54 66 50 48 50 64 100 75 95 99 100 100 100 100 89 100 98 99 95 73 100 100 100 100 92
14 11 11 10 10 8 8 8 18 8 8 12 28 25 22 42 60 47 64 95 100 100 100 92 100 99 85 88 88 73 88 59 77 96 100 100 100 100 100 93 100 100 100 86 91 100 100 100 100
15 19 14 12 10 9 8 9 8 8 11 23 65 28 22 24 26 52 72 90 100 90 89 100 100 96 86 100 86 52 61 68 58 83 100 100 100 100 100 100 100 84 97 84 99 100 100 92 96
33 38 19 18 16 10 11 10 15 13 13 14 18 16 14 64 100 100 99 70 83 82 100 100 100 100 100 100 90 100 95 100 100 100 100 100 95 89 100 100 100 100 100 99 100 100 94 85 92
88 70 90 52 18 13 23 62 53 55 70 61 40 43 36 89 100 100 79 52 45 98 96 100 100 96 100 100 100 100 100 100 100 100 98 100 96 100 93 95 100 100 100 100 100 88 91 95 88
64 100 81 32 17 23 42 68 66 100 68 81 75 100 100 100 100 100 100 94 46 76 77 100 100 100 100 100 100 100 100 100 100 100 100 100 100 100 97 100 96 100 96 98 99 100 91 83 82
91 91 42 37 52 40 72 81 100 97 75 70 100 85 100 100 100 100 100 96 80 99 100 100 100 100 100 100 100 100 100 100 100 100 100 100 100 100 100 97 94 93 94 96 100 92 88 81 78
100 100 65 66 62 100 100 100 100 72 73 67 100 100 100 100 100 89 100 100 100 100 100 100 100 100 100 100 100 100 100 100 100 100 100 100 100 100 100 100 100 100 100 100 93 89 87 80 63
100 100 94 70 100 100 100 100 100 79 76 80 87 100 100 99 85 98 100 100 100 100 100 100 100 100 100 100 100 100 100 100 100 98 98 100 100 100 100 100 100 100 100 94 89 84 70 60 59
93 95 96 91 100 100 100 100 100 96 99 80 88 100 100 100 100 100 99 100 100 100 100 100 100 100 100 100 100 100 100 100 98 100 100 100 100 100 99 100 100 99 99 94 78 71 60 58 48
100 100 98 85 100 100 100 100 100 100 78 58 57 100 100 100 100 92 80 98 100 100 100 100 100 100 100 100 100 100 100 100 100 100 100 100 100 100 100 100 100 100 88 77 74 63 51 39 28
100 99 100 100 83 97 100 100 100 100 100 100 65 98 78 75 91 95 90 86 67 76 96 100 100 100 100 100 100 100 100 100 100 100 100 100 100 100 99 96 82 80 60 52 40 37 30 27 29
94 100 100 100 100 86 96 81 100 100 94 72 86 100 98 81 85 100 100 100 94 72 89 91 100 94 91 99 100 100 100 100 100 100 90 91 96 90 84 75 60 46 36 32 29 30 30 29 31
96 100 100 100 99 100 100 99 88 100 87 91 99 93 90 92 93 92 99 100 92 78 92 100 85 80 76 80 94 100 100 100 93 84 90 94 84 75 51 38 32 29 29 27 25 28 33 38 46
91 78 99 100 100 100 100 100 100 96 84 84 81 100 100 100 79 91 100 92 95 100 84 88 100 100 100 100 100 100 100 99 100 94 87 61 40 34 29 26 25 27 33 37 42 47 50 52 44
95 100 99 89 89 98 100 100 100 90 100 100 100 84 85 92 91 90 93 98 100 100 100 100 100 100 98 98 89 73 69 69 60 47 38 30 26 23 27 32 33 36 38 41 45 49 50 49 48
94 96 100 99 86 98 84 75 89 98 94 100 100 96 82 74 77 81 92 90 94 91 80 89 97 98 93 75 73 67 50 45 33 27 24 23 27 33 35 35 36 38 46 52 56 57 55 56 63
94 74 95 84 80 100 98 100 100 100 86 65 67 74 84 86 80 78 77 71 76 67 39 53 51 58 60 60 53 42 31 29 27 31 33 32 28 33 37 40 45 52 57 58 59 61 58 55 58
91 100 100 100 99 88 99 92 74 85 74 61 96 82 55 64 46 26 34 27 34 47 60 65 63 56 51 36 32 28 26 29 28 27 28 31 34 39 43 44 47 52 60 61 58 63 59 58 52
85 91 85 89 100 95 79 69 84 80 85 71 49 36 33 41 80 74 61 49 36 30 42 46 40 36 33 30 28 28 28 26 25 28 31 32 35 36 38 41 52 64 69 65 64 63 58 54 57
100 90 88 95 100 79 90 90 74 76 41 74 85 34 30 44 61 89 56 22 31 45 48 40 34 33 34 33 34 33 33 32 32 33 33 36 36 40 49 60 66 61 64 65 63 63 64 66 62
97 76 75 100 100 100 90 78 71 55 63 70 81 57 70 87 99 98 35 50 52 58 36 35 38 40 44 45 41 41 44 41 42 53 43 52 58 51 61 62 63 65 69 66 69 74 71 69 62
87 76 83 88 72 65 86 49 20 54 67 66 90 99 100 90 100 62 52 51 42 42 44 47 49 51 56 56 53 58 65 87 96 74 66 64 53 58 61 66 75 76 72 74 75 68 62 60 72
85 81 54 38 49 77 56 46 69 64 50 42 36 50 94 100 77 49 49 50 51 45 44 47 53 61 69 75 74 79 88 86 75 67 54 56 64 59 62 77 81 80 78 84 76 67 62 72 64
59 32 23 29 55 77 54 87 49 49 32 29 60 45 44 48 52 46 46 48 48 52 57 60 63 69 72 70 68 74 73 64 50 52 58 66 62 61 75 86 87 87 88 80 75 69 65 65 55
21 17 16 35 66 96 71 45 36 42 55 51 39 54 51 46 44 45 47 48 54 58 66 63 59 63 80 93 73 58 56 51 54 52 64 68 64 70 85 90 90 86 74 70 61 62 62 51 47

GFSSGP_250_rhum_030.txt.gz
RH
4 4 4 4 5 6 7 7 7 6 5 6 6 7 6 6 8 10 12 14 17 17 21 25 26 26 26 33 28 28 32 30 37 81 75 66 64 64 52 55 69 70 53 66 71 76 87 100 100
6 5 4 4 5 6 7 7 7 6 6 7 8 8 8 8 7 9 14 15 20 21 19 23 26 27 33 40 30 22 32 35 68 100 89 84 75 71 58 73 82 76 84 99 81 78 100 100 100
8 7 7 6 6 6 6 6 6 6 6 8 7 7 7 9 11 12 12 15 18 24 22 21 18 19 30 23 20 25 28 50 89 86 92 79 81 69 75 94 89 89 100 100 82 100 100 100 70
8 8 10 9 9 8 6 5 6 7 7 7 8 8 8 10 13 12 14 18 18 41 37 41 34 24 22 26 26 33 91 100 100 100 98 71 69 98 100 100 98 100 100 100 100 100 100 100 100
9 9 11 12 11 8 7 7 7 7 8 9 8 9 9 11 11 28 38 35 36 54 42 61 83 60 60 72 77 100 100 100 87 84 99 81 100 100 100 100 100 100 100 100 100 86 80 90 57
11 14 13 15 11 10 8 7 8 11 20 13 14 15 13 15 13 12 23 50 53 68 88 80 99 76 73 100 100 98 100 100 100 100 100 99 100 98 100 89 100 88 75 77 65 100 91 92 98
16 24 19 16 14 12 10 10 10 11 10 12 11 22 17 41 44 40 24 75 64 93 100 100 100 98 95 99 92 100 100 100 100 100 100 100 95 79 58 100 100 100 100 89 76 100 100 100 68
22 33 40 19 15 16 13 12 12 13 15 21 23 53 18 16 66 48 76 62 100 100 100 100 100 100 100 100 100 100 100 100 72 85 88 99 71 60 100 100 89 77 80 69 100 83 67 87 100
60 60 98 58 24 18 15 14 16 14 15 18 32 17 28 23 40 62 65 100 93 100 100 100 100 100 100 98 99 100 98 100 100 84 81 100 100 97 70 74 100 84 100 100 100 100 100 99 88
100 100 45 45 25 30 37 28 25 39 47 36 21 53 93 92 86 96 84 99 100 100 100 96 100 100 100 100 100 100 100 100 100 99 100 100 95 97 100 100 97 100 100 92 99 100 95 92 89
100 100 69 45 43 68 59 78 100 99 86 47 52 100 100 100 100 100 99 99 100 100 100 100 100 100 100 100 100 100 100 100 100 100 100 100 100 73 100 100 100 100 100 92 100 100 100 88 82
100 86 91 78 93 58 91 100 100 76 56 61 72 100 100 100 100 100 100 100 100 100 79 100 100 100 100 100 100 100 100 100 92 98 100 100 100 100 100 96 99 98 84 89 83 88 87 95 87
100 100 88 88 95 96 100 100 100 68 55 81 100 100 100 100 100 100 100 100 100 100 100 100 100 100 100 100 100 100 100 100 100 100 100 100 100 100 100 100 100 100 97 95 100 89 91 90 87
100 93 100 100 100 100 100 100 100 88 83 100 100 100 100 100 100 100 100 100 100 97 92 100 100 100 100 100 100 100 100 100 100 100 100 100 100 100 100 100 98 92 100 100 100 91 82 73 65
100 94 86 100 100 100 100 100 100 100 81 87 100 100 100 100 100 100 100 100 100 100 100 100 100 100 100 100 100 100 100 100 100 100 100 93 87 100 99 91 98 100 100 91 82 74 59 45 34
100 100 100 100 100 100 100 100 100 100 79 88 100 100 100 100 100 100 100 98 79 100 100 100 100 100 100 100 100 100 100 100 100 100 100 100 100 100 100 99 88 100 85 79 66 54 37 30 27
100 95 94 100 100 100 100 100 100 100 99 76 85 89 100 100 100 100 100 100 100 100 100 100 100 100 100 100 100 100 100 100 100 100 100 100 100 98 100 94 86 78 77 58 38 29 29 27 28
90 100 100 100 100 100 100 100 100 100 100 84 70 67 91 100 100 100 100 100 99 100 100 100 100 95 99 97 100 100 100 100 100 99 96 98 100 100 96 77 66 51 38 28 28 28 28 27 29
91 86 84 78 90 100 100 100 100 100 100 100 100 91 79 80 100 100 100 100 99 96 92 84 69 64 82 98 100 100 100 100 100 100 90 95 92 69 64 51 41 28 26 26 27 27 29 32 37
94 90 100 100 94 71 99 100 99 93 90 100 92 82 80 90 100 100 100 93 68 60 68 74 82 86 100 100 100 97 96 92 83 77 75 78 75 62 45 31 26 25 25 26 31 30 30 35 38
97 100 100 100 100 100 94 92 100 99 84 75 83 91 94 82 66 68 75 78 77 62 60 69 64 88 90 77 83 87 88 89 82 72 66 52 41 34 26 24 24 25 27 30 26 30 38 42 40
100 100 100 100 100 95 90 88 77 77 97 100 100 100 100 98 88 86 78 91 96 98 83 98 100 100 97 96 73 67 62 64 72 51 38 31 28 26 27 26 26 27 27 29 33 43 44 42 48
90 100 86 82 100 95 87 96 85 82 79 88 97 92 82 67 54 82 91 91 76 65 52 48 100 98 83 71 74 71 60 39 34 32 30 30 32 32 32 31 32 40 42 35 40 45 43 44 55
81 74 86 95 100 80 76 86 99 97 96 98 98 100 97 92 86 59 29 28 38 62 36 53 57 35 42 39 41 40 36 35 36 37 38 38 40 35 34 40 41 39 34 40 47 49 45 51 67
76 88 90 87 100 75 77 69 65 70 67 75 79 54 48 39 37 59 38 42 44 54 43 71 47 44 43 44 39 37 39 45 44 42 38 33 35 42 48 41 36 39 41 48 56 53 62 70 80
88 100 100 86 78 73 75 64 70 84 86 76 62 26 19 43 42 48 54 52 80 70 83 77 78 67 40 42 46 49 45 36 31 32 38 43 42 39 38 42 42 44 54 58 56 65 74 82 82
92 89 76 74 79 72 85 81 100 93 69 39 27 19 31 51 57 48 57 81 82 70 71 80 83 52 52 48 45 41 39 39 41 46 50 47 45 44 45 50 52 57 60 58 67 73 79 77 68
71 86 99 100 100 82 56 50 66 64 27 52 66 58 59 50 66 73 84 92 90 49 61 62 50 55 55 56 55 51 48 46 53 59 54 54 53 53 53 56 61 63 62 69 81 82 71 64 61
76 66 72 78 96 54 28 25 22 31 28 70 52 47 46 56 58 65 81 77 53 53 50 49 51 51 59 64 62 54 46 55 61 59 60 55 54 56 60 66 68 69 76 82 81 71 68 62 56
72 53 38 66 42 37 14 14 26 26 50 54 50 64 58 54 58 60 56 57 55 48 43 44 51 58 59 61 56 54 67 73 67 60 60 56 56 61 62 69 74 81 83 74 66 64 61 57 45

GFSSGP_250_rhum_033.txt.gz
RH
8 8 7 5 5 6 6 6 6 7 8 8 8 7 7 7 7 8 9 8 10 12 11 11 15 19 20 19 20 22 27 28 28 26 28 32 35 23 24 30 40 65 59 62 63 56 58 70 70
9 9 9 9 8 6 6 5 6 6 7 8 8 7 7 8 8 7 8 10 10 10 12 15 19 19 19 21 23 25 29 30 26 22 32 33 30 33 42 49 79 89 71 67 63 70 90 94 88
8 9 9 9 10 8 7 6 6 6 6 8 8 8 8 8 8 8 9 10 12 12 14 15 17 17 18 25 29 32 24 24 27 36 40 37 40 39 60 98 94 85 81 88 76 84 96 100 97
8 8 10 10 10 10 9 7 6 6 6 8 15 8 10 8 9 11 11 11 17 22 34 24 20 17 18 21 28 32 33 34 36 45 31 34 44 70 100 91 100 95 100 100 100 87 85 86 100
11 9 10 10 11 11 11 10 9 8 7 8 8 10 9 11 16 21 19 19 20 17 41 34 26 30 37 41 46 58 60 54 37 35 60 85 100 100 100 100 100 100 100 95 84 82 90 91 77
15 14 13 13 11 12 12 11 12 9 8 10 12 13 13 10 11 11 12 19 19 20 34 28 44 60 58 78 94 73 73 99 81 87 97 100 100 100 100 98 100 100 99 83 76 100 100 85 79
19 23 26 17 13 13 11 12 11 11 11 15 24 33 17 12 13 14 18 18 24 39 70 99 100 100 78 71 78 82 78 84 92 100 100 100 100 100 100 100 100 95 91 73 89 92 73 78 55
31 44 38 19 13 14 14 13 13 12 14 29 65 56 39 24 33 42 40 44 100 94 93 100 90 100 100 100 100 100 100 76 70 91 99 99 100 96 88 67 70 60 72 63 69 65 97 100 100
40 74 51 27 24 17 18 15 14 15 18 34 29 60 52 33 44 54 74 94 97 100 99 100 100 100 100 100 100 97 92 99 99 89 100 100 100 92 84 57 54 50 86 98 100 100 100 97 77
49 85 41 26 36 42 31 19 20 18 22 50 98 100 64 36 52 100 100 100 99 88 100 100 100 100 100 100 100 94 96 100 100 100 100 88 93 100 87 86 83 100 100 100 85 97 94 94 80
47 32 40 53 68 59 52 39 43 65 97 93 62 98 64 62 100 100 100 100 100 94 100 100 100 100 100 100 89 100 100 100 100 100 100 100 86 91 100 99 100 76 100 95 100 93 98 100 97
58 80 57 97 100 100 100 100 100 100 98 76 52 38 94 100 100 98 88 100 100 100 100 100 100 100 100 100 100 100 100 100 100 96 100 100 99 100 92 100 100 96 87 100 95 98 86 90 77
96 100 84 98 100 100 100 100 100 100 64 62 60 100 100 100 100 100 100 100 100 100 100 100 100 100 100 100 100 100 100 100 100 100 100 92 100 100 98 84 99 95 100 100 91 91 90 82 78
100 100 96 100 100 100 100 100 100 88 86 97 100 100 100 100 100 100 100 100 100 100 100 100 100 100 100 100 100 100 100 100 100 100 100 100 100 100 100 100 100 100 96 97 98 96 98 94 82
100 100 95 100 100 100 100 100 70 100 100 100 100 100 100 100 100 100 100 100 100 94 100 100 87 92 83 79 70 97 100 100 100 100 100 100 100 100 100 100 96 94 100 90 99 100 88 77 68
100 99 100 100 100 100 100 100 64 79 100 100 100 100 100 100 100 100 100 100 100 100 100 100 91 84 90 79 88 95 100 100 100 100 100 100 100 100 95 82 88 91 96 92 88 77 65 58 45
92 84 100 100 100 100 100 100 90 96 100 100 100 100 100 100 100 100 100 100 96 100 100 100 100 100 100 100 100 100 100 100 100 100 100 100 90 100 96 100 100 99 84 74 67 60 48 40 34
80 90 99 99 100 100 100 100 100 98 100 100 100 100 100 100 100 100 100 100 100 88 88 85 100 100 100 100 100 100 100 100 100 100 100 100 100 100 100 100 87 75 67 61 53 41 35 33 35
100 100 100 100 100 100 100 100 100 100 98 100 100 100 98 100 100 100 100 100 100 100 100 100 100 100 100 100 100 95 100 91 100 100 100 99 87 99 91 75 71 64 48 42 36 34 32 31 29
97 97 98 100 100 100 100 100 100 100 98 75 86 72 73 89 96 100 100 100 100 100 100 100 100 98 94 89 96 92 79 86 98 97 82 74 86 88 85 69 50 42 36 34 33 30 28 27 28
82 86 90 97 98 100 100 100 100 100 99 93 81 66 78 96 71 61 58 60 77 83 94 100 100 86 70 67 70 77 69 78 86 82 82 83 80 69 49 37 34 33 31 30 29 30 29 28 28
90 90 100 100 98 100 100 100 100 100 99 99 89 87 81 79 92 90 77 73 62 60 65 61 60 63 68 81 82 82 82 86 89 84 73 58 40 35 35 34 33 33 34 38 38 36 41 43 46
85 94 100 100 88 78 78 87 100 100 100 100 69 75 100 100 100 100 90 75 65 65 62 61 58 73 83 81 83 100 85 78 75 58 47 39 37 36 38 34 37 39 38 39 46 51 50 50 49
94 95 84 100 98 82 85 74 72 76 72 92 99 95 84 79 88 69 86 92 84 75 75 71 65 88 99 94 95 84 71 69 53 46 39 38 42 41 38 46 49 48 48 52 49 49 45 45 46
100 100 100 98 84 72 79 86 77 86 93 91 96 100 99 79 54 56 60 65 86 88 75 76 78 98 100 99 85 82 68 48 41 43 47 44 43 44 47 52 48 50 48 45 44 45 43 46 50
91 93 100 100 88 91 99 84 82 87 83 84 87 91 85 81 69 36 20 28 48 77 67 76 88 84 100 87 71 67 58 48 51 48 41 48 55 52 51 46 43 44 48 50 51 45 50 58 67
80 86 87 86 69 65 70 86 85 82 81 67 54 52 53 34 31 44 48 58 53 63 60 78 97 98 82 68 61 64 47 42 40 45 59 53 50 53 48 48 54 53 52 56 56 59 65 72 78
75 73 73 75 68 72 82 86 90 80 68 60 50 46 24 41 61 64 54 58 66 78 73 79 74 71 57 58 52 41 43 51 52 48 48 52 56 52 56 62 59 56 56 61 61 73 79 78 70
36 75 83 86 81 74 76 83 88 47 36 34 27 31 56 59 52 37 42 57 56 52 64 72 64 52 47 41 42 52 54 47 49 53 63 60 58 60 59 59 56 57 66 67 75 77 78 74 71
20 27 54 79 73 58 64 74 37 28 34 45 70 65 63 47 42 69 76 62 60 68 64 56 47 43 38 44 52 47 43 45 50 60 63 61 59 59 58 54 59 70 74 76 76 78 74 80 73

GFSSGP_250_rhum_036.txt.gz
RH
8 8 6 6 6 7 6 6 6 6 8 9 9 9 10 9 9 10 10 9 9 8 8 8 8 9 9 11 14 15 13 14 18 23 17 20 20 22 24 22 22 22 24 20 21 21 22 47 72
8 8 8 7 8 9 8 8 6 6 7 9 8 14 10 10 10 10 13 22 12 11 10 9 10 12 12 13 14 14 17 21 21 20 21 23 24 20 20 21 23 28 28 27 31 35 51 80 54
9 8 9 9 9 10 10 9 9 8 7 7 8 8 11 13 10 14 24 23 19 17 17 17 16 21 18 13 16 16 18 20 20 18 22 20 21 19 22 26 24 29 35 33 55 58 81 83 72
10 10 10 9 11 9 10 11 10 11 8 8 7 8 11 10 13 17 20 12 18 17 19 28 28 20 17 20 20 21 30 23 24 21 24 27 25 26 29 35 59 44 56 53 98 100 98 100 100
11 11 11 12 12 10 10 10 11 12 11 9 7 8 19 25 16 22 18 24 46 46 48 33 24 22 22 20 30 40 28 29 31 39 36 43 38 32 37 44 40 55 78 100 100 100 95 100 96
12 11 12 14 12 9 10 11 12 12 12 10 8 10 11 15 18 33 42 34 54 61 78 59 39 24 20 41 50 44 62 57 71 67 70 61 54 49 73 59 84 92 100 100 98 91 83 72 92
12 12 15 17 12 13 12 12 12 13 12 12 12 12 14 18 18 21 31 46 51 52 60 54 28 38 61 71 58 97 85 100 100 98 72 60 52 70 86 92 94 89 86 85 69 57 39 39 60
12 14 20 21 18 16 15 14 14 12 12 14 14 19 27 20 32 32 24 26 36 30 25 36 100 100 100 100 100 100 100 95 87 65 56 51 57 49 72 76 87 94 92 77 48 39 44 54 69
15 19 26 30 20 29 37 34 16 14 14 18 54 24 29 57 36 55 36 26 27 44 100 100 100 99 99 100 100 100 100 100 100 93 92 100 78 81 90 96 78 74 76 63 49 80 100 100 94
18 23 33 46 58 85 58 41 25 18 18 22 45 73 48 27 81 80 94 65 71 72 81 91 99 100 100 100 100 100 100 100 100 100 91 99 97 95 97 87 76 77 97 91 100 100 89 86 75
26 47 69 88 85 88 98 89 37 25 24 98 100 86 98 82 46 76 100 100 87 100 77 100 100 100 100 100 100 100 100 100 100 100 99 99 100 96 84 84 100 82 100 100 100 89 89 99 84
30 58 87 100 88 100 100 99 70 70 80 100 100 100 95 85 84 100 100 100 100 100 100 100 100 100 100 100 100 100 100 100 100 100 100 99 92 72 85 100 100 100 100 100 87 91 100 93 89
45 80 98 100 100 100 100 100 100 100 96 87 89 66 98 96 100 95 100 100 100 100 100 100 100 100 100 100 100 100 100 100 100 100 100 100 100 100 100 96 97 100 94 97 100 100 95 79 75
52 75 92 100 100 100 100 100 100 100 72 90 73 73 94 100 100 100 100 100 100 100 100 100 100 100 100 100 100 100 100 100 100 100 100 94 98 100 100 100 100 100 90 100 96 93 83 93 92
82 82 90 100 99 100 100 100 100 99 82 69 99 91 100 100 100 100 100 100 100 100 100 100 100 100 100 100 100 100 100 100 100 92 87 99 100 100 100 100 100 100 100 99 93 87 79 82 74
100 82 83 94 91 100 100 96 100 97 100 100 100 100 100 100 100 100 100 100 100 100 100 100 100 100 100 100 100 100 100 97 85 66 88 73 100 100 100 100 100 100 90 96 83 85 80 73 64
100 90 86 100 100 100 100 78 87 87 100 100 100 100 100 100 100 100 100 85 84 100 100 100 97 98 91 90 97 92 78 57 63 89 100 100 100 100 100 100 100 96 91 87 80 74 66 47 39
99 100 98 74 100 100 100 100 100 99 100 100 100 100 100 100 100 98 100 100 68 90 99 100 77 75 75 68 59 65 80 100 100 100 100 100 100 100 96 100 96 96 86 71 63 45 37 34 34
82 84 81 88 92 100 100 100 100 100 100 100 100 100 100 100 100 100 100 98 88 84 80 90 100 100 100 100 100 100 100 100 100 100 100 100 85 66 80 95 91 81 62 50 36 34 36 40 43
93 100 100 96 99 100 98 100 97 100 96 100 99 100 100 100 100 100 97 86 80 100 100 100 94 98 100 100 100 100 100 95 77 69 72 70 68 83 86 85 71 48 37 35 37 47 48 44 36
88 100 100 100 95 100 87 100 88 99 95 100 83 78 96 100 100 100 100 100 100 100 100 100 100 96 94 86 79 79 77 74 64 66 75 78 77 76 70 52 40 37 37 44 47 44 37 32 34
85 81 100 100 100 100 97 85 100 97 100 100 100 97 76 77 82 90 84 100 97 80 82 82 81 74 76 75 67 63 67 74 63 60 59 58 46 43 42 40 41 45 46 45 49 44 40 45 45
89 88 80 100 100 100 100 100 95 100 99 100 100 90 95 72 49 52 60 65 68 81 97 82 69 63 79 79 72 76 78 69 64 61 54 49 48 44 47 50 43 45 47 44 42 44 44 43 48
74 99 91 95 94 100 99 86 96 100 100 100 100 100 98 94 72 69 65 62 55 57 52 55 61 98 88 85 88 94 100 100 84 75 60 60 60 49 43 44 46 44 38 41 41 44 53 56 54
76 92 98 98 93 100 100 97 94 88 79 85 78 77 88 80 66 65 61 70 70 55 66 72 81 77 87 100 100 100 99 95 90 96 71 62 53 46 48 45 44 41 49 53 59 59 52 52 59
58 75 77 84 78 81 97 94 86 93 89 88 88 80 77 87 87 74 70 63 76 77 49 57 74 100 100 100 100 100 100 86 76 72 64 54 50 48 46 43 47 58 61 60 61 56 50 59 67
48 68 77 81 84 73 83 83 71 88 100 100 100 98 85 82 78 70 78 66 58 38 65 72 82 100 100 100 100 100 91 91 70 54 50 54 49 46 47 55 60 64 59 61 59 50 58 65 62
20 61 86 80 71 90 96 88 91 89 98 97 89 100 97 97 86 78 50 29 41 53 57 61 97 100 100 100 95 76 59 56 49 46 51 49 53 59 62 68 67 58 58 59 51 55 60 65 70
23 28 70 85 90 83 81 90 96 97 97 100 98 63 49 54 47 39 52 54 50 45 53 56 52 61 77 80 74 56 48 42 42 41 37 47 58 57 59 60 57 58 59 56 55 56 66 67 72
40 28 20 53 80 93 85 96 97 97 100 100 69 42 39 39 48 62 59 42 49 67 51 52 63 74 75 83 90 67 53 60 47 48 54 57 56 55 63 65 61 62 63 59 60 70 71 74 74